| time (UTC) | temp C | wind direction | speed KPH | gust KPH | rain 1hr cm | rain 24hr cm | rain mn cm | humidity % | barometer mb |
| 20260906052756 | 25 | 357 | 0.0 | 0.0 | 0.00 | 0.00 | 0.00 | 91 | 1012.0 |
| 20260906052252 | 25 | 357 | 0.0 | 0.0 | 0.00 | 0.00 | 0.00 | 91 | 1012.1 |
| 20260906051750 | 25 | 357 | 0.0 | 0.0 | 0.00 | 0.00 | 0.00 | 90 | 1012.1 |
| 20260906051249 | 25 | 357 | 0.0 | 0.0 | 0.00 | 0.00 | 0.00 | 90 | 1012.2 |
| 20260906050744 | 25 | 357 | 0.0 | 0.0 | 0.00 | 0.00 | 0.00 | 89 | 1012.2 |
| 20260906050239 | 25 | 357 | 0.0 | 0.0 | 0.00 | 0.00 | 0.00 | 89 | 1012.2 |
| 20260906045738 | 26 | 357 | 0.0 | 0.0 | 0.00 | 0.00 | 0.00 | 88 | 1012.1 |
| 20260906045233 | 26 | 357 | 0.0 | 0.0 | 0.00 | 0.00 | 0.00 | 89 | 1012.2 |
| 20260906044729 | 26 | 357 | 0.0 | 0.0 | 0.00 | 0.00 | 0.00 | 88 | 1012.2 |
| 20260906044224 | 26 | 357 | 0.0 | 0.0 | 0.00 | 0.00 | 0.00 | 88 | 1012.2 |
| 20260906043720 | 26 | 357 | 0.0 | 0.0 | 0.00 | 0.00 | 0.00 | 88 | 1012.2 |
| 20260906043216 | 26 | 357 | 0.0 | 0.0 | 0.00 | 0.00 | 0.00 | 87 | 1012.2 |
| 20260906042715 | 26 | 357 | 0.0 | 0.0 | 0.00 | 0.00 | 0.00 | 87 | 1012.3 |
| 20260906042208 | 26 | 357 | 0.0 | 0.0 | 0.00 | 0.00 | 0.00 | 87 | 1012.1 |
| 20260906041705 | 26 | 357 | 0.0 | 0.0 | 0.00 | 0.00 | 0.00 | 87 | 1012.2 |
| 20260906041205 | 26 | 357 | 0.0 | 0.0 | 0.00 | 0.00 | 0.00 | 86 | 1012.1 |
| 20260906040700 | 26 | 357 | 0.0 | 1.6 | 0.00 | 0.00 | 0.00 | 86 | 1012.0 |
| 20260906040155 | 26 | 357 | 0.0 | 0.0 | 0.00 | 0.00 | 0.00 | 84 | 1012.1 |
| 20260906035651 | 26 | 357 | 0.0 | 0.0 | 0.00 | 0.00 | 0.00 | 84 | 1012.3 |
| 20260906035146 | 26 | 357 | 0.0 | 0.0 | 0.00 | 0.00 | 0.00 | 84 | 1012.3 |
| 20260906034642 | 26 | 357 | 0.0 | 0.0 | 0.00 | 0.00 | 0.00 | 85 | 1012.3 |
| 20260906034142 | 26 | 357 | 0.0 | 0.0 | 0.00 | 0.00 | 0.00 | 84 | 1012.2 |
| 20260906033638 | 26 | 357 | 0.0 | 0.0 | 0.00 | 0.00 | 0.00 | 85 | 1012.3 |
| 20260906033137 | 26 | 357 | 0.0 | 0.0 | 0.00 | 0.00 | 0.00 | 86 | 1012.1 |
| 20260906032635 | 26 | 357 | 0.0 | 0.0 | 0.00 | 0.00 | 0.00 | 85 | 1012.4 |
| 20260906032134 | 27 | 357 | 0.0 | 0.0 | 0.00 | 0.00 | 0.00 | 85 | 1012.2 |
| 20260906031629 | 27 | 357 | 0.0 | 0.0 | 0.00 | 0.00 | 0.00 | 85 | 1011.9 |
| 20260906031125 | 27 | 357 | 0.0 | 0.0 | 0.00 | 0.00 | 0.00 | 84 | 1012.0 |
| 20260906030624 | 27 | 358 | 0.0 | 0.0 | 0.00 | 0.00 | 0.00 | 84 | 1012.0 |
| 20260906030120 | 27 | 355 | 0.0 | 0.0 | 0.00 | 0.00 | 0.00 | 84 | 1012.0 |
| 20260906025619 | 27 | 347 | 0.0 | 0.0 | 0.00 | 0.00 | 0.00 | 84 | 1011.9 |
| 20260906025118 | 27 | 333 | 0.0 | 0.0 | 0.00 | 0.00 | 0.00 | 84 | 1011.9 |
| 20260906024613 | 27 | 334 | 0.0 | 0.0 | 0.00 | 0.00 | 0.00 | 83 | 1011.9 |
| 20260906024107 | 27 | 307 | 0.0 | 0.0 | 0.00 | 0.00 | 0.00 | 83 | 1011.9 |
| 20260906023604 | 27 | 307 | 0.0 | 0.0 | 0.00 | 0.00 | 0.00 | 81 | 1011.8 |
| 20260906023103 | 27 | 307 | 0.0 | 0.0 | 0.00 | 0.00 | 0.00 | 80 | 1011.8 |
| 20260906022559 | 27 | 307 | 0.0 | 0.0 | 0.00 | 0.00 | 0.00 | 80 | 1011.7 |
| 20260906022054 | 27 | 307 | 0.0 | 0.0 | 0.00 | 0.00 | 0.00 | 79 | 1011.8 |
| 20260906021550 | 28 | 307 | 0.0 | 0.0 | 0.00 | 0.00 | 0.00 | 79 | 1011.7 |
| 20260906021048 | 28 | 307 | 0.0 | 0.0 | 0.00 | 0.00 | 0.00 | 78 | 1011.6 |
| 20260906020548 | 28 | 307 | 0.0 | 0.0 | 0.00 | 0.00 | 0.00 | 78 | 1011.4 |
| 20260906020048 | 28 | 307 | 0.0 | 0.0 | 0.00 | 0.00 | 0.00 | 77 | 1011.6 |
| 20260906015548 | 28 | 307 | 0.0 | 0.0 | 0.00 | 0.00 | 0.00 | 77 | 1011.7 |
| 20260906015047 | 28 | 307 | 0.0 | 0.0 | 0.00 | 0.00 | 0.00 | 76 | 1011.5 |
| 20260906014542 | 28 | 307 | 0.0 | 0.0 | 0.00 | 0.00 | 0.00 | 76 | 1011.1 |
| 20260906014038 | 28 | 307 | 0.0 | 0.0 | 0.00 | 0.00 | 0.00 | 75 | 1011.2 |
| 20260906013533 | 29 | 307 | 0.0 | 0.0 | 0.00 | 0.00 | 0.00 | 74 | 1011.2 |
| 20260906013029 | 29 | 307 | 0.0 | 0.0 | 0.00 | 0.00 | 0.00 | 72 | 1011.3 |
| 20260906012524 | 30 | 307 | 0.0 | 0.0 | 0.00 | 0.00 | 0.00 | 72 | 1011.3 |
| 20260906012023 | 30 | 307 | 0.0 | 0.0 | 0.00 | 0.00 | 0.00 | 71 | 1011.2 |
| 20260906011519 | 30 | 307 | 0.0 | 0.0 | 0.00 | 0.00 | 0.00 | 70 | 1011.1 |
| 20260906011019 | 30 | 307 | 0.0 | 0.0 | 0.00 | 0.00 | 0.00 | 69 | 1011.1 |
| 20260906010514 | 30 | 307 | 0.0 | 0.0 | 0.00 | 0.00 | 0.00 | 68 | 1011.0 |
| 20260906010011 | 30 | 307 | 0.0 | 0.0 | 0.00 | 0.00 | 0.00 | 68 | 1010.8 |
| 20260906005509 | 30 | 307 | 0.0 | 0.0 | 0.00 | 0.00 | 0.00 | 67 | 1010.9 |
| 20260906005008 | 30 | 307 | 0.0 | 0.0 | 0.00 | 0.00 | 0.00 | 66 | 1010.8 |
| 20260906004503 | 31 | 307 | 0.0 | 0.0 | 0.00 | 0.00 | 0.00 | 66 | 1010.7 |
| 20260906003958 | 31 | 307 | 0.0 | 0.0 | 0.00 | 0.00 | 0.00 | 66 | 1010.5 |
| 20260906003453 | 31 | 307 | 0.0 | 0.0 | 0.00 | 0.00 | 0.00 | 65 | 1010.6 |
| 20260906002949 | 31 | 307 | 0.0 | 0.0 | 0.00 | 0.00 | 0.00 | 64 | 1010.8 |
| 20260906002448 | 31 | 307 | 0.0 | 0.0 | 0.00 | 0.00 | 0.00 | 63 | 1010.8 |
| 20260906001944 | 32 | 307 | 0.0 | 0.0 | 0.00 | 0.00 | 0.00 | 63 | 1010.6 |
| 20260906001440 | 32 | 307 | 0.0 | 0.0 | 0.00 | 0.00 | 0.00 | 62 | 1010.8 |
| 20260906000934 | 32 | 307 | 0.0 | 0.0 | 0.00 | 0.00 | 0.00 | 61 | 1010.8 |
| 20260906000430 | 33 | 307 | 0.0 | 0.0 | 0.00 | 0.00 | 0.00 | 61 | 1010.9 |
| 20260905235925 | 33 | 307 | 0.0 | 0.0 | 0.00 | 0.00 | 0.00 | 59 | 1010.8 |
| 20260905235424 | 33 | 307 | 0.0 | 0.0 | 0.00 | 0.00 | 0.00 | 57 | 1010.8 |
| 20260905234920 | 35 | 306 | 0.0 | 0.0 | 0.00 | 0.00 | 0.00 | 55 | 1011.0 |
| 20260905234415 | 35 | 306 | 0.0 | 0.0 | 0.00 | 0.00 | 0.00 | 52 | 1010.8 |
| 20260905233915 | 36 | 306 | 0.0 | 0.0 | 0.00 | 0.00 | 0.00 | 51 | 1011.0 |
| 20260905233410 | 36 | 306 | 0.0 | 0.0 | 0.00 | 0.00 | 0.00 | 50 | 1010.9 |
| 20260905232909 | 36 | 306 | 0.0 | 0.0 | 0.00 | 0.00 | 0.00 | 50 | 1010.8 |
| 20260905232405 | 36 | 341 | 0.0 | 0.0 | 0.00 | 0.00 | 0.00 | 49 | 1010.7 |
| 20260905231901 | 36 | 341 | 1.6 | 1.6 | 0.00 | 0.00 | 0.00 | 48 | 1010.9 |
| 20260905231356 | 37 | 334 | 0.0 | 0.0 | 0.00 | 0.00 | 0.00 | 48 | 1010.7 |
| 20260905230853 | 37 | 335 | 1.6 | 1.6 | 0.00 | 0.00 | 0.00 | 47 | 1010.8 |
| 20260905230350 | 37 | 59 | 3.2 | 3.2 | 0.00 | 0.00 | 0.00 | 46 | 1010.7 |
| 20260905225844 | 37 | 352 | 1.6 | 3.2 | 0.00 | 0.00 | 0.00 | 46 | 1011.0 |
| 20260905225339 | 38 | 2 | 0.0 | 0.0 | 0.00 | 0.00 | 0.00 | 45 | 1010.8 |
| 20260905224834 | 37 | 3 | 0.0 | 0.0 | 0.00 | 0.00 | 0.00 | 45 | 1010.7 |
| 20260905224330 | 37 | 355 | 1.6 | 3.2 | 0.00 | 0.00 | 0.00 | 45 | 1010.9 |
| 20260905223830 | 38 | 42 | 1.6 | 1.6 | 0.00 | 0.00 | 0.00 | 44 | 1011.0 |
| 20260905223328 | 38 | 285 | 1.6 | 1.6 | 0.00 | 0.00 | 0.00 | 44 | 1010.8 |
| 20260905222822 | 38 | 45 | 1.6 | 1.6 | 0.00 | 0.00 | 0.00 | 45 | 1011.0 |
| 20260905222321 | 37 | 347 | 0.0 | 0.0 | 0.00 | 0.00 | 0.00 | 45 | 1010.8 |
| 20260905221818 | 37 | 346 | 1.6 | 1.6 | 0.00 | 0.00 | 0.00 | 45 | 1011.1 |
| 20260905221314 | 38 | 339 | 1.6 | 1.6 | 0.00 | 0.00 | 0.00 | 45 | 1011.1 |
| 20260905220810 | 38 | 334 | 3.2 | 4.8 | 0.00 | 0.00 | 0.00 | 44 | 1011.1 |
| 20260905220306 | 38 | 347 | 1.6 | 1.6 | 0.00 | 0.00 | 0.00 | 44 | 1010.9 |
| 20260905215805 | 38 | 331 | 1.6 | 1.6 | 0.00 | 0.00 | 0.00 | 44 | 1010.8 |
| 20260905215301 | 38 | 339 | 0.0 | 1.6 | 0.00 | 0.00 | 0.00 | 44 | 1010.8 |
| 20260905214756 | 38 | 303 | 1.6 | 1.6 | 0.00 | 0.00 | 0.00 | 44 | 1010.8 |
| 20260905214252 | 38 | 346 | 1.6 | 3.2 | 0.00 | 0.00 | 0.00 | 45 | 1010.8 |
| 20260905213747 | 38 | 224 | 1.6 | 4.8 | 0.00 | 0.00 | 0.00 | 44 | 1011.0 |
| 20260905213243 | 38 | 315 | 0.0 | 0.0 | 0.00 | 0.00 | 0.00 | 43 | 1011.2 |
| 20260905212738 | 38 | 342 | 0.0 | 1.6 | 0.00 | 0.00 | 0.00 | 44 | 1011.1 |
| 20260905212238 | 38 | 265 | 1.6 | 1.6 | 0.00 | 0.00 | 0.00 | 43 | 1011.1 |
| 20260905211737 | 38 | 357 | 1.6 | 1.6 | 0.00 | 0.00 | 0.00 | 43 | 1011.2 |
| 20260905211232 | 39 | 340 | 1.6 | 3.2 | 0.00 | 0.00 | 0.00 | 41 | 1011.0 |
| 20260905210729 | 38 | 77 | 1.6 | 3.2 | 0.00 | 0.00 | 0.00 | 42 | 1011.0 |
| 20260905210229 | 38 | 27 | 1.6 | 1.6 | 0.00 | 0.00 | 0.00 | 44 | 1011.2 |
| 20260905205727 | 38 | 18 | 0.0 | 0.0 | 0.00 | 0.00 | 0.00 | 43 | 1011.2 |
| 20260905205223 | 39 | 347 | 1.6 | 3.2 | 0.00 | 0.00 | 0.00 | 41 | 1011.1 |
| 20260905204722 | 40 | 258 | 1.6 | 1.6 | 0.00 | 0.00 | 0.00 | 40 | 1011.3 |
| 20260905204218 | 40 | 341 | 0.0 | 0.0 | 0.00 | 0.00 | 0.00 | 41 | 1011.5 |
| 20260905203717 | 40 | 6 | 0.0 | 0.0 | 0.00 | 0.00 | 0.00 | 40 | 1011.3 |
| 20260905203214 | 38 | 265 | 3.2 | 4.8 | 0.00 | 0.00 | 0.00 | 42 | 1011.4 |
| 20260905202709 | 39 | 294 | 1.6 | 1.6 | 0.00 | 0.00 | 0.00 | 41 | 1011.3 |
| 20260905202209 | 38 | 11 | 3.2 | 3.2 | 0.00 | 0.00 | 0.00 | 41 | 1011.6 |
| 20260905201705 | 37 | 346 | 3.2 | 3.2 | 0.00 | 0.00 | 0.00 | 44 | 1011.7 |
| 20260905201205 | 38 | 87 | 3.2 | 9.7 | 0.00 | 0.00 | 0.00 | 42 | 1011.6 |
| 20260905200700 | 37 | 325 | 1.6 | 1.6 | 0.00 | 0.00 | 0.00 | 46 | 1011.9 |
| 20260905200155 | 38 | 311 | 1.6 | 3.2 | 0.00 | 0.00 | 0.00 | 43 | 1011.9 |
| 20260905195653 | 39 | 266 | 1.6 | 1.6 | 0.00 | 0.00 | 0.00 | 43 | 1012.0 |
| 20260905195149 | 40 | 300 | 0.0 | 0.0 | 0.00 | 0.00 | 0.00 | 42 | 1012.0 |
| 20260905194644 | 39 | 52 | 6.4 | 6.4 | 0.00 | 0.00 | 0.00 | 43 | 1012.1 |
| 20260905194144 | 40 | 42 | 3.2 | 3.2 | 0.00 | 0.00 | 0.00 | 43 | 1012.2 |
| 20260905193638 | 39 | 281 | 1.6 | 3.2 | 0.00 | 0.00 | 0.00 | 42 | 1012.4 |
| 20260905193139 | 38 | 238 | 3.2 | 3.2 | 0.00 | 0.00 | 0.00 | 44 | 1012.4 |
| 20260905192634 | 36 | 318 | 0.0 | 0.0 | 0.00 | 0.00 | 0.00 | 47 | 1012.7 |
| 20260905192131 | 37 | 333 | 0.0 | 1.6 | 0.00 | 0.00 | 0.00 | 47 | 1012.8 |
| 20260905191630 | 36 | 277 | 1.6 | 4.8 | 0.00 | 0.00 | 0.00 | 48 | 1012.8 |
| 20260905191128 | 37 | 336 | 1.6 | 1.6 | 0.00 | 0.00 | 0.00 | 48 | 1012.9 |
| 20260905190627 | 38 | 313 | 3.2 | 3.2 | 0.00 | 0.00 | 0.00 | 45 | 1013.0 |
| 20260905190126 | 38 | 331 | 1.6 | 1.6 | 0.00 | 0.00 | 0.00 | 46 | 1012.9 |
| 20260905185626 | 37 | 197 | 3.2 | 3.2 | 0.00 | 0.00 | 0.00 | 46 | 1013.0 |
| 20260905185126 | 36 | 356 | 0.0 | 1.6 | 0.00 | 0.00 | 0.00 | 48 | 1013.3 |
| 20260905184620 | 36 | 341 | 0.0 | 1.6 | 0.00 | 0.00 | 0.00 | 49 | 1013.3 |
| 20260905184119 | 37 | 107 | 3.2 | 4.8 | 0.00 | 0.00 | 0.00 | 48 | 1013.3 |
| 20260905183618 | 38 | 350 | 1.6 | 3.2 | 0.00 | 0.00 | 0.00 | 45 | 1013.4 |
| 20260905183114 | 39 | 345 | 1.6 | 3.2 | 0.00 | 0.00 | 0.00 | 45 | 1013.1 |
| 20260905182613 | 39 | 3 | 0.0 | 1.6 | 0.00 | 0.00 | 0.00 | 45 | 1013.4 |
| 20260905182108 | 38 | 349 | 1.6 | 1.6 | 0.00 | 0.00 | 0.00 | 46 | 1013.3 |
| 20260905181608 | 38 | 332 | 1.6 | 1.6 | 0.00 | 0.00 | 0.00 | 46 | 1013.3 |
| 20260905181107 | 38 | 16 | 0.0 | 0.0 | 0.00 | 0.00 | 0.00 | 45 | 1013.6 |
| 20260905180602 | 37 | 238 | 3.2 | 4.8 | 0.00 | 0.00 | 0.00 | 48 | 1013.5 |
| 20260905180057 | 37 | 318 | 1.6 | 1.6 | 0.00 | 0.00 | 0.00 | 47 | 1013.5 |
| 20260905175556 | 37 | 345 | 6.4 | 9.7 | 0.00 | 0.00 | 0.00 | 49 | 1013.7 |
| 20260905175052 | 38 | 302 | 3.2 | 4.8 | 0.00 | 0.00 | 0.00 | 47 | 1013.6 |
| 20260905174548 | 36 | 33 | 3.2 | 4.8 | 0.00 | 0.00 | 0.00 | 49 | 1013.5 |
| 20260905174043 | 37 | 7 | 1.6 | 1.6 | 0.00 | 0.00 | 0.00 | 47 | 1013.8 |
| 20260905173540 | 37 | 246 | 3.2 | 4.8 | 0.00 | 0.00 | 0.00 | 48 | 1013.7 |
| 20260905173035 | 35 | 321 | 0.0 | 1.6 | 0.00 | 0.00 | 0.00 | 50 | 1013.7 |
| 20260905172533 | 36 | 72 | 3.2 | 4.8 | 0.00 | 0.00 | 0.00 | 48 | 1013.9 |
| 20260905172029 | 36 | 355 | 1.6 | 1.6 | 0.00 | 0.00 | 0.00 | 50 | 1013.9 |
| 20260905171525 | 36 | 350 | 0.0 | 1.6 | 0.00 | 0.00 | 0.00 | 50 | 1014.1 |
| 20260905171021 | 37 | 196 | 3.2 | 3.2 | 0.00 | 0.00 | 0.00 | 50 | 1013.9 |
| 20260905170517 | 35 | 180 | 3.2 | 3.2 | 0.00 | 0.00 | 0.00 | 51 | 1014.1 |
| 20260905170012 | 37 | 349 | 3.2 | 4.8 | 0.00 | 0.00 | 0.00 | 49 | 1014.1 |
| 20260905165507 | 37 | 351 | 1.6 | 1.6 | 0.00 | 0.00 | 0.00 | 48 | 1014.0 |
| 20260905165002 | 37 | 242 | 3.2 | 4.8 | 0.00 | 0.00 | 0.00 | 48 | 1014.3 |
| 20260905164501 | 37 | 3 | 1.6 | 3.2 | 0.00 | 0.00 | 0.00 | 50 | 1014.4 |
| 20260905163956 | 37 | 46 | 3.2 | 4.8 | 0.00 | 0.00 | 0.00 | 48 | 1014.5 |
| 20260905163453 | 36 | 158 | 4.8 | 6.4 | 0.00 | 0.00 | 0.00 | 50 | 1014.6 |
| 20260905162948 | 36 | 320 | 0.0 | 1.6 | 0.00 | 0.00 | 0.00 | 49 | 1014.7 |
| 20260905162444 | 36 | 13 | 1.6 | 1.6 | 0.00 | 0.00 | 0.00 | 52 | 1014.5 |
| 20260905161938 | 36 | 17 | 0.0 | 1.6 | 0.00 | 0.00 | 0.00 | 51 | 1014.7 |
| 20260905161437 | 36 | 17 | 3.2 | 3.2 | 0.00 | 0.00 | 0.00 | 51 | 1014.6 |
| 20260905160936 | 36 | 88 | 4.8 | 6.4 | 0.00 | 0.00 | 0.00 | 52 | 1014.6 |
| 20260905160430 | 35 | 317 | 0.0 | 0.0 | 0.00 | 0.00 | 0.00 | 55 | 1014.9 |
| 20260905155929 | 35 | 41 | 3.2 | 3.2 | 0.00 | 0.00 | 0.00 | 54 | 1014.8 |
| 20260905155424 | 33 | 354 | 0.0 | 0.0 | 0.00 | 0.00 | 0.00 | 56 | 1014.6 |
| 20260905154923 | 35 | 286 | 1.6 | 3.2 | 0.00 | 0.00 | 0.00 | 55 | 1014.9 |
| 20260905154419 | 35 | 339 | 1.6 | 1.6 | 0.00 | 0.00 | 0.00 | 56 | 1014.8 |
| 20260905153914 | 35 | 348 | 1.6 | 1.6 | 0.00 | 0.00 | 0.00 | 55 | 1014.7 |
| 20260905153410 | 34 | 309 | 1.6 | 1.6 | 0.00 | 0.00 | 0.00 | 58 | 1014.9 |
| 20260905152910 | 33 | 12 | 0.0 | 0.0 | 0.00 | 0.00 | 0.00 | 60 | 1015.0 |
| 20260905152409 | 32 | 271 | 1.6 | 1.6 | 0.00 | 0.00 | 0.00 | 61 | 1014.9 |
| 20260905151904 | 32 | 285 | 1.6 | 1.6 | 0.00 | 0.00 | 0.00 | 62 | 1014.9 |
| 20260905151400 | 32 | 306 | 0.0 | 1.6 | 0.00 | 0.00 | 0.00 | 65 | 1014.8 |
| 20260905150855 | 32 | 268 | 0.0 | 0.0 | 0.00 | 0.00 | 0.00 | 68 | 1015.0 |
| 20260905150354 | 31 | 281 | 1.6 | 1.6 | 0.00 | 0.00 | 0.00 | 66 | 1014.7 |
| 20260905145851 | 31 | 1 | 1.6 | 3.2 | 0.00 | 0.00 | 0.00 | 66 | 1014.9 |
| 20260905145346 | 31 | 323 | 1.6 | 1.6 | 0.00 | 0.00 | 0.00 | 66 | 1014.7 |
| 20260905144845 | 31 | 329 | 0.0 | 0.0 | 0.00 | 0.00 | 0.00 | 70 | 1014.7 |
| 20260905144341 | 31 | 271 | 1.6 | 1.6 | 0.00 | 0.00 | 0.00 | 71 | 1014.9 |
| 20260905143839 | 31 | 188 | 3.2 | 3.2 | 0.00 | 0.00 | 0.00 | 70 | 1015.0 |
| 20260905143334 | 31 | 71 | 4.8 | 4.8 | 0.00 | 0.00 | 0.00 | 70 | 1015.1 |
| 20260905142833 | 31 | 286 | 1.6 | 1.6 | 0.00 | 0.00 | 0.00 | 69 | 1014.7 |
| 20260905142327 | 30 | 331 | 0.0 | 0.0 | 0.00 | 0.00 | 0.00 | 71 | 1015.0 |
| 20260905141823 | 30 | 1 | 0.0 | 0.0 | 0.00 | 0.00 | 0.00 | 72 | 1015.0 |
| 20260905141319 | 30 | 358 | 0.0 | 1.6 | 0.00 | 0.00 | 0.00 | 73 | 1015.0 |
| 20260905140814 | 30 | 346 | 1.6 | 1.6 | 0.00 | 0.00 | 0.00 | 73 | 1015.0 |
| 20260905140314 | 29 | 1 | 0.0 | 0.0 | 0.00 | 0.00 | 0.00 | 76 | 1015.0 |
| 20260905135812 | 28 | 357 | 1.6 | 1.6 | 0.00 | 0.00 | 0.00 | 77 | 1014.7 |
| 20260905135309 | 29 | 64 | 3.2 | 4.8 | 0.00 | 0.00 | 0.00 | 77 | 1015.0 |
| 20260905134804 | 28 | 338 | 0.0 | 0.0 | 0.00 | 0.00 | 0.00 | 78 | 1015.0 |
| 20260905134302 | 28 | 53 | 0.0 | 1.6 | 0.00 | 0.00 | 0.00 | 78 | 1014.8 |
| 20260905133757 | 30 | 59 | 1.6 | 3.2 | 0.00 | 0.00 | 0.00 | 75 | 1014.9 |
| 20260905133252 | 28 | 338 | 0.0 | 0.0 | 0.00 | 0.00 | 0.00 | 77 | 1014.8 |
| 20260905132751 | 28 | 357 | 0.0 | 0.0 | 0.00 | 0.00 | 0.00 | 79 | 1015.0 |
| 20260905132247 | 28 | 2 | 0.0 | 0.0 | 0.00 | 0.00 | 0.00 | 78 | 1014.7 |
| 20260905131742 | 28 | 4 | 0.0 | 1.6 | 0.00 | 0.00 | 0.00 | 80 | 1014.9 |
| 20260905131238 | 27 | 8 | 0.0 | 0.0 | 0.00 | 0.00 | 0.00 | 80 | 1014.7 |
| 20260905130737 | 27 | 1 | 0.0 | 0.0 | 0.00 | 0.00 | 0.00 | 82 | 1014.6 |
| 20260905130237 | 27 | 359 | 0.0 | 1.6 | 0.00 | 0.00 | 0.00 | 82 | 1015.0 |
| 20260905125732 | 26 | 352 | 0.0 | 0.0 | 0.00 | 0.00 | 0.00 | 86 | 1014.9 |
| 20260905125227 | 26 | 353 | 0.0 | 0.0 | 0.00 | 0.00 | 0.00 | 87 | 1014.8 |
| 20260905124724 | 25 | 352 | 0.0 | 0.0 | 0.00 | 0.00 | 0.00 | 90 | 1014.7 |
| 20260905124220 | 25 | 354 | 0.0 | 0.0 | 0.00 | 0.00 | 0.00 | 91 | 1015.0 |
| 20260905123720 | 23 | 354 | 0.0 | 0.0 | 0.00 | 0.00 | 0.00 | 93 | 1014.6 |
| 20260905123217 | 23 | 356 | 0.0 | 0.0 | 0.00 | 0.00 | 0.00 | 95 | 1014.8 |
| 20260905122716 | 23 | 358 | 0.0 | 0.0 | 0.00 | 0.00 | 0.00 | 95 | 1015.1 |
| 20260905122211 | 23 | 356 | 0.0 | 0.0 | 0.00 | 0.00 | 0.00 | 95 | 1014.8 |
| 20260905121706 | 23 | 356 | 0.0 | 0.0 | 0.00 | 0.00 | 0.00 | 96 | 1014.9 |
| 20260905121202 | 23 | 356 | 0.0 | 0.0 | 0.00 | 0.00 | 0.00 | 96 | 1014.9 |
| 20260905120701 | 23 | 353 | 0.0 | 0.0 | 0.00 | 0.00 | 0.00 | 96 | 1014.9 |
| 20260905120156 | 23 | 0 | 0.0 | 1.6 | 0.00 | 0.00 | 0.00 | 96 | 1014.9 |
| 20260905115655 | 23 | 3 | 1.6 | 1.6 | 0.00 | 0.00 | 0.00 | 96 | 1014.8 |
| 20260905115151 | 23 | 351 | 0.0 | 0.0 | 0.00 | 0.00 | 0.00 | 96 | 1014.6 |
| 20260905114650 | 23 | 351 | 0.0 | 0.0 | 0.00 | 0.00 | 0.00 | 97 | 1014.6 |
| 20260905114148 | 23 | 351 | 0.0 | 0.0 | 0.00 | 0.00 | 0.00 | 97 | 1014.6 |
| 20260905113643 | 23 | 350 | 0.0 | 0.0 | 0.00 | 0.00 | 0.00 | 97 | 1014.4 |
| 20260905113139 | 23 | 350 | 0.0 | 0.0 | 0.00 | 0.00 | 0.00 | 97 | 1014.5 |
| 20260905112639 | 23 | 350 | 0.0 | 0.0 | 0.00 | 0.00 | 0.00 | 97 | 1014.6 |
| 20260905112135 | 23 | 351 | 0.0 | 0.0 | 0.00 | 0.00 | 0.00 | 97 | 1014.5 |
| 20260905111635 | 23 | 350 | 0.0 | 0.0 | 0.00 | 0.00 | 0.00 | 97 | 1014.3 |
| 20260905111134 | 23 | 350 | 0.0 | 0.0 | 0.00 | 0.00 | 0.00 | 97 | 1014.3 |
| 20260905110633 | 23 | 350 | 0.0 | 0.0 | 0.00 | 0.00 | 0.00 | 97 | 1014.2 |
| 20260905110128 | 23 | 350 | 0.0 | 1.6 | 0.00 | 0.00 | 0.00 | 97 | 1014.4 |
| 20260905105623 | 23 | 350 | 0.0 | 0.0 | 0.00 | 0.00 | 0.00 | 97 | 1014.0 |
| 20260905105122 | 23 | 350 | 0.0 | 0.0 | 0.00 | 0.00 | 0.00 | 97 | 1014.1 |
| 20260905104618 | 23 | 350 | 1.6 | 1.6 | 0.00 | 0.00 | 0.00 | 97 | 1014.0 |
| 20260905104113 | 23 | 350 | 0.0 | 0.0 | 0.00 | 0.00 | 0.00 | 97 | 1014.0 |
| 20260905103608 | 23 | 351 | 1.6 | 1.6 | 0.00 | 0.00 | 0.00 | 98 | 1014.1 |
| 20260905103104 | 23 | 352 | 1.6 | 1.6 | 0.00 | 0.00 | 0.00 | 98 | 1014.0 |
| 20260905102559 | 23 | 351 | 0.0 | 0.0 | 0.00 | 0.00 | 0.00 | 98 | 1014.0 |
| 20260905101023 | 22 | 351 | 0.0 | 0.0 | 0.00 | 0.00 | 0.00 | 98 | 1013.8 |
| 20260905100520 | 22 | 351 | 0.0 | 0.0 | 0.00 | 0.00 | 0.00 | 98 | 1013.8 |
| 20260905100020 | 23 | 351 | 0.0 | 0.0 | 0.00 | 0.00 | 0.00 | 98 | 1013.9 |
| 20260905095514 | 23 | 351 | 0.0 | 0.0 | 0.00 | 0.00 | 0.00 | 97 | 1013.9 |
| 20260905095009 | 23 | 351 | 0.0 | 0.0 | 0.00 | 0.00 | 0.00 | 97 | 1013.8 |
| 20260905094504 | 23 | 351 | 0.0 | 0.0 | 0.00 | 0.00 | 0.00 | 97 | 1013.6 |
| 20260905094003 | 23 | 351 | 0.0 | 0.0 | 0.00 | 0.00 | 0.00 | 97 | 1013.6 |
| 20260905093458 | 23 | 351 | 0.0 | 0.0 | 0.00 | 0.00 | 0.00 | 97 | 1013.8 |
| 20260905092954 | 23 | 351 | 0.0 | 0.0 | 0.00 | 0.00 | 0.00 | 97 | 1013.5 |
| 20260905092450 | 23 | 351 | 0.0 | 0.0 | 0.00 | 0.00 | 0.00 | 97 | 1013.4 |
| 20260905091945 | 23 | 351 | 0.0 | 0.0 | 0.00 | 0.00 | 0.00 | 97 | 1013.6 |
| 20260905091445 | 23 | 351 | 0.0 | 0.0 | 0.00 | 0.00 | 0.00 | 97 | 1013.7 |
| 20260905090944 | 23 | 351 | 0.0 | 0.0 | 0.00 | 0.00 | 0.00 | 97 | 1013.5 |
| 20260905090439 | 23 | 351 | 0.0 | 0.0 | 0.00 | 0.00 | 0.00 | 97 | 1013.4 |
| 20260905085938 | 23 | 351 | 0.0 | 0.0 | 0.00 | 0.00 | 0.00 | 96 | 1013.7 |
| 20260905085438 | 23 | 351 | 0.0 | 0.0 | 0.00 | 0.00 | 0.00 | 96 | 1013.6 |
| 20260905084934 | 23 | 351 | 0.0 | 0.0 | 0.00 | 0.00 | 0.00 | 96 | 1013.3 |
| 20260905084433 | 23 | 351 | 0.0 | 0.0 | 0.00 | 0.00 | 0.00 | 96 | 1013.5 |
| 20260905083928 | 23 | 351 | 0.0 | 0.0 | 0.00 | 0.00 | 0.00 | 96 | 1013.6 |
| 20260905083424 | 23 | 351 | 0.0 | 0.0 | 0.00 | 0.00 | 0.00 | 96 | 1013.4 |
| 20260905082920 | 23 | 351 | 0.0 | 0.0 | 0.00 | 0.00 | 0.00 | 96 | 1013.4 |
| 20260905082415 | 23 | 351 | 0.0 | 0.0 | 0.00 | 0.00 | 0.00 | 95 | 1013.4 |
| 20260905081910 | 23 | 351 | 0.0 | 0.0 | 0.00 | 0.00 | 0.00 | 95 | 1013.3 |
| 20260905081405 | 23 | 351 | 0.0 | 0.0 | 0.00 | 0.00 | 0.00 | 95 | 1013.3 |
| 20260905080904 | 23 | 351 | 0.0 | 0.0 | 0.00 | 0.00 | 0.00 | 95 | 1013.4 |
| 20260905080358 | 23 | 351 | 0.0 | 0.0 | 0.00 | 0.00 | 0.00 | 95 | 1013.1 |
| 20260905075858 | 23 | 351 | 0.0 | 0.0 | 0.00 | 0.00 | 0.00 | 95 | 1013.4 |
| 20260905075357 | 23 | 351 | 0.0 | 0.0 | 0.00 | 0.00 | 0.00 | 95 | 1013.3 |
| 20260905074856 | 23 | 351 | 0.0 | 0.0 | 0.00 | 0.00 | 0.00 | 95 | 1013.5 |
| 20260905074352 | 23 | 351 | 0.0 | 0.0 | 0.00 | 0.00 | 0.00 | 95 | 1013.5 |
| 20260905073848 | 23 | 351 | 0.0 | 0.0 | 0.00 | 0.00 | 0.00 | 94 | 1013.3 |
| 20260905073343 | 23 | 351 | 0.0 | 0.0 | 0.00 | 0.00 | 0.00 | 94 | 1013.4 |
| 20260905072838 | 23 | 351 | 0.0 | 0.0 | 0.00 | 0.00 | 0.00 | 94 | 1013.5 |
| 20260905072332 | 23 | 351 | 0.0 | 0.0 | 0.00 | 0.00 | 0.00 | 94 | 1013.5 |
| 20260905071829 | 23 | 351 | 0.0 | 0.0 | 0.00 | 0.00 | 0.00 | 94 | 1013.4 |
| 20260905071325 | 24 | 351 | 0.0 | 0.0 | 0.00 | 0.00 | 0.00 | 93 | 1013.7 |
| 20260905070819 | 24 | 351 | 0.0 | 0.0 | 0.00 | 0.00 | 0.00 | 93 | 1013.6 |
| 20260905070316 | 24 | 351 | 0.0 | 0.0 | 0.00 | 0.00 | 0.00 | 93 | 1013.6 |
| 20260905065815 | 24 | 351 | 0.0 | 0.0 | 0.00 | 0.00 | 0.00 | 93 | 1013.6 |
| 20260905065313 | 24 | 351 | 0.0 | 0.0 | 0.00 | 0.00 | 0.00 | 93 | 1013.6 |
| 20260905064809 | 24 | 351 | 0.0 | 0.0 | 0.00 | 0.00 | 0.00 | 93 | 1013.6 |
| 20260905064304 | 24 | 351 | 0.0 | 0.0 | 0.00 | 0.00 | 0.00 | 93 | 1013.7 |
| 20260905063803 | 24 | 351 | 0.0 | 0.0 | 0.00 | 0.00 | 0.00 | 92 | 1013.8 |
| 20260905063259 | 24 | 351 | 0.0 | 0.0 | 0.00 | 0.00 | 0.00 | 92 | 1013.8 |
| 20260905062755 | 24 | 351 | 0.0 | 0.0 | 0.00 | 0.00 | 0.00 | 92 | 1013.8 |
| 20260905062255 | 24 | 351 | 0.0 | 0.0 | 0.00 | 0.00 | 0.00 | 92 | 1013.9 |
| 20260905061750 | 24 | 351 | 0.0 | 0.0 | 0.00 | 0.00 | 0.00 | 91 | 1013.9 |
| 20260905061250 | 25 | 351 | 0.0 | 0.0 | 0.00 | 0.00 | 0.00 | 91 | 1013.9 |
| 20260905060744 | 25 | 351 | 0.0 | 0.0 | 0.00 | 0.00 | 0.00 | 91 | 1013.9 |
| 20260905060241 | 25 | 351 | 0.0 | 0.0 | 0.00 | 0.00 | 0.00 | 90 | 1013.8 |
| 20260905055740 | 25 | 351 | 0.0 | 0.0 | 0.00 | 0.00 | 0.00 | 90 | 1013.7 |
| 20260905055235 | 25 | 351 | 0.0 | 0.0 | 0.00 | 0.00 | 0.00 | 90 | 1013.9 |
| 20260905054730 | 25 | 351 | 0.0 | 0.0 | 0.00 | 0.00 | 0.00 | 90 | 1014.0 |
| 20260905054226 | 25 | 351 | 0.0 | 1.6 | 0.00 | 0.00 | 0.00 | 90 | 1014.1 |
| 20260905053725 | 25 | 351 | 1.6 | 1.6 | 0.00 | 0.00 | 0.00 | 90 | 1014.1 |
| 20260905053221 | 25 | 351 | 0.0 | 0.0 | 0.00 | 0.00 | 0.00 | 90 | 1014.1 |